Tracking 22879 objects as of 21-Apr-2021
HD Live streaming from Space Station
objects crossing your sky now

STARLINK-2066

Track STARLINK-2066 now!
10-day predictions
STARLINK-2066 is classified as:


NORAD ID: 47673
Int'l Code: 2021-012BF
Perigee: 382.6 km
Apogee: 384.4 km
Inclination: 53.0 °
Period: 92.1 minutes
Semi major axis: 6754 km
RCS: Unknown
Launch date: February 16, 2021
Source: United States (US)
Launch site: AIR FORCE EASTERN TEST RANGE (AFETR)
aabbcc
Your satellite tracking list
Your tracking list is empty




NASA's NSSDC Master Catalog

Two Line Element Set (TLE):
1 47673U 21012BF  21110.58335648 -.01032830  00000-0 -11995-1 0  9995
2 47673  53.0467 146.0497 0001349  64.0716  78.2309 15.63903436  1770
Source of the keplerian elements: AFSPC